Regional Weather Roundup
Issued by NWS Wakefield, VA

Home | Current Version | Previous Version | Text Only | Print | Product List | Glossary On
Versions: 1 2 3 4 5 6 7 8 9 10 11 12 13 14 15 16 17 18 19 20 21 22 23 24 25 26 27 28 29 30 31 32 33 34 35 36 37 38 39 40 41 42 43 44 45 46 47 48 49 50
000
ASUS41 KAKQ 211810
RWRAKQ

REGIONAL WEATHER ROUNDUP
NATIONAL WEATHER SERVICE WAKEFIELD VA
200 PM EDT THU AUG 21 2014

Note: "fair" indicates few or no clouds below 12,000 feet with no
significant weather and/or obstructions to visibility. * = Denotes
station may not report precipitation (e.g., rain,snow,etc.),
thunder or fog.

VAZ042-051-052>054-056-211900-
NORTHERN VIRGINIA

CITY           SKY/WX    TMP DP  RH WIND       PRES   REMARKS
WASH NATIONAL  PTSUNNY   88  71  57 S7        30.02F
DULLES         PTSUNNY   85  68  56 CALM      30.03F
FORT BELVOIR   MOSUNNY   88  70  54 W6        30.02F
QUANTICO       PTSUNNY   84  74  71 S7        30.03F
FREDERICKSBRG*   N/A    N/A N/A N/A W3        30.02F
STAFFORD*      MOSUNNY   85  70  61 CALM      30.07F
WARRENTON      MOSUNNY   88  76  66 CALM      30.03F HX  99
CULPEPER*      MOSUNNY  N/A N/A N/A CALM      30.04F
MANASSAS*      MOSUNNY   84  72  65 CALM      30.03F
LEESBURG*      MOSUNNY   86  72  62 CALM      30.03F
WINCHESTER     PTSUNNY   86  68  54 SW7       30.04F
$$

VAZ048-049-060>072-079>083-211900-
CENTRAL AND SOUTH CENTRAL VIRGINIA...AND NORTH CENTRAL NORTH CAROLINA

CITY           SKY/WX    TMP DP  RH WIND       PRES   REMARKS
RICHMOND       CLOUDY    88  68  51 CALM      30.03S
CHESTERFIELD*  PTCLDY    90  64  43 SW5       30.05F
HANOVER        MOSUNNY   89  68  49 VRB5      30.05S
TAPPAHANNOCK*  MOSUNNY   88  66  48 CALM      30.03F
CHARLOTTSVILLE PTSUNNY   83  68  60 CALM      30.05F
ORANGE*        PTSUNNY   86  68  54 SW5       30.06F
LOUISA*        PTSUNNY   88  70  55 CALM      30.05S
FARMVILLE*     MOSUNNY   88  64  45 NW3       30.04F
SOUTH HILL*    MOSUNNY   90  72  55 N3        30.11S HX  96
ROANOKE RAPIDS PTCLDY    88  70  55 CALM      30.05S
RALEIGH        PTSUNNY   89  69  51 VRB5      30.08S
$$

VAZ088>098-211900-
SOUTHEAST VIRGINIA

CITY           SKY/WX    TMP DP  RH WIND       PRES   REMARKS
NORFOLK        SUNNY     85  73  67 NE5       30.03S
VIRGINIA BEACH PTSUNNY   87  67  51 VRB5      30.02S
NORFOLK NAVAL  PTSUNNY   89  74  60 NE6       30.04S HX  98
WEST POINT*    SUNNY     89  68  48 CALM      30.04S
NEWPORT NEWS   PTSUNNY   90  73  57 W6        30.03S HX  98
LANGLEY AFB    SUNNY     87  70  56 NE7       30.02S
FORT EUSTIS    MOSUNNY   86  69  56 W7        30.02S
WILLIAMSBURG*  MOSUNNY   91  75  59 S7        30.04S HX 102
FRANKLIN*      SUNNY     90  70  51 CALM      30.04S HX  95
WAKEFIELD      MOSUNNY   88  71  57 CALM      30.04S
$$

VAZ020-022-025-037-045-211900-
WESTERN AND SOUTHWEST VIRGINIA

CITY           SKY/WX    TMP DP  RH WIND       PRES   REMARKS
STAUNTON*      PTSUNNY   84  62  47 SE5       30.08F
HOT SPRINGS VA CLOUDY    72  62  70 W6        30.25F
LYNCHBURG        N/A    N/A N/A N/A VRB5      30.11F
DANVILLE       PTSUNNY   86  68  54 W6        30.09S
MARTINSVILLE   PTSUNNY   88  68  52 CALM      30.14F
ROANOKE        PTSUNNY   87  65  47 W9        30.12F
BLACKSBURG     PTSUNNY   84  70  61 NW5       30.19F
DUBLIN*        PTSUNNY   83  66  55 W3        30.18F
MARION*        PTSUNNY   79  68  69 SW10G17   30.24F
HILLSVILLE*    PTSUNNY   79  66  66 SW7       30.21F
RICHLANDS*     MOCLDY    80  69  69 SW9       30.24R
WISE*          MOSUNNY   79  68  69 SW8       30.24F
ABINGDON*      CLOUDY    78  68  72 W6        30.23S
$$

MDZ021>025-VAZ099-100-211900-
SOUTHERN MARYLAND AND THE DELMARVA PENINSULA

CITY           SKY/WX    TMP DP  RH WIND       PRES   REMARKS
PATUXENT RIVER PTSUNNY   82  73  74 SE9       30.02S
BAY BRIDGE APT   N/A     82  70  65 SW3       30.01F
LEONARDTOWN    PTSUNNY   82  70  65 CALM      30.03F
DOVER          MOSUNNY   80  73  79 E12       30.02F
GEORGETOWN     CLOUDY    83  72  69 E10G21    30.03F
EASTON         NOT AVBL
CAMBRIDGE      MOSUNNY   86  70  58 N3        30.01F
SALISBURY      CLOUDY    84  74  71 SE9       30.02F
OCEAN CITY     SUNNY     80  72  76 SE9       30.04F
WALLOPS ISLAND PTSUNNY   84  74  71 S10       30.04S
ACCOMACK*      PTSUNNY   84  73  70 E8        30.02F
$$

NCZ012>017-030>032-211900-
EASTERN NORTH CAROLINA

CITY           SKY/WX    TMP DP  RH WIND       PRES   REMARKS
ELIZABETH CITY MOSUNNY   88  75  65 W7        30.03F HX  97
AHOSKIE*       MOSUNNY   86  71  62 N3        30.04F
EDENTON*       SUNNY     87  74  66 W3        30.04S HX  95
CURRITUCK*     PTSUNNY   91  71  52 W6        30.03S HX  98
KILL DEVIL HLS MOSUNNY   87  72  62 SW5       30.02F
MANTEO         CLOUDY    84  73  70 S7        30.03F
CAPE HATTERAS  MOSUNNY   83  74  74 SW5       30.05F
GOLDSBORO      MOSUNNY   90  75  62 VRB5      30.02F HX 101
WASHINGTON     SUNNY     89  73  60 CALM      30.03F HX  97
GREENVILLE     SUNNY     88  75  66 N3        30.06S HX  97
NEW BERN       MOSUNNY   94  75  54 W6        30.03F HX 105
WILMINGTON     MOSUNNY   89  70  53 S8        30.04S
$$

VAZ048-211900-
ELSEWHERE

CITY           SKY/WX    TMP DP  RH WIND       PRES   REMARKS
HARRISBURG PA  PTSUNNY   85  70  60 S3        30.00F
BALTIMORE      PTSUNNY   85  70  60 S5        30.00F
ANNAPOLIS      SUNNY     81  72  74 SE9       30.01F
ANDREWS AFB    MOSUNNY   86  71  59 W5        30.02F
WILMINGTON DE  CLOUDY    79  70  74 SE7       30.04F
PHILADELPHIA   PTSUNNY   82  68  62 S5        30.02F
WILDWOOD NJ*   PTSUNNY   81  66  61 SE7       30.06S
ATLANTIC CITY  MOSUNNY   80  63  55 SE8       30.05S
HENDERSON NC   MOSUNNY   87  68  54 W5        30.08S
GREENSBORO     CLOUDY    86  65  49 N6        30.12S
ROCKY MOUNT    SUNNY     90  71  53 CALM      30.05S HX  96
FAYETTEVILLE   PTSUNNY   93  69  45 VRB6      30.05S HX  98
CHARLOTTE      MOSUNNY   91  64  40 NW5       30.11F
$$

VAZ100-211900-
MARINE

STATION/POSITION TIME  TEMP    WIND        PRES    WAVE   SWELL
                       AIR SEA DIR/SP/G            HT/PER HT/PER
                 (UTC) (F)     (DEG/KT/KT) (MB)    (FT/S) (FT/S)
44066 TX TWR #4  1800   71 74   40/  6/  8 1017.8F   3/ 7   3/ 7
CAPE MAY NJ      1800   76 81  110/  8/ 12 1016.9S
LEWES DE         1800   77 76  140/  9/ 12 1017.0R
15NM E FENWICK I 1800   75 76              1017.2F   3/ 7
OCEAN-CITY-INLET 1800   78 78  150/  6/ 10 1017.0R
WACHAPREAGUE VA  1800   81 81  140/  7/ 10 1016.9R
THOMAS POINT MD  1800   79 78  150/  4/  5 1017.0F
GOOSES REEF MD   1800   80     110/  4/  4 1017.1S
COVE POINT MD    1800   78     170/  6/  7 1016.5F
SOLOMONS ISLAND  1800      82                N/A
BISHOPS HEAD MD  1800   81 80  220/  2/  3 1016.5F
PINEY POINT MD   1800          270/  3/  4   N/A
POTOMAC MD       1800   80     130/  2/  4 1016.2S
CAMBRIDGE MD     1800   80 78  340/  6/  7 1016.1F
LEWISETTA VA     1800   81 79   80/  3/  4 1016.3F
RAPPAHANNOCK LGT 1800          300/  1/  2 1017.4S
STINGRAY PT      1800   81     110/  2/  2 1017.6S
YORK RVR RNG VA  1800   83     180/  2/  2 1016.5R
YORKTOWN VA      1800   84 81  320/  4/  4 1016.7R
JAMESTOWN VA     1800   83     310/  4/  4   N/A
DOMINION TERM VA 1800   82     230/  2/  5 1017.0S
KIPTOPEKE VA     1800      83  290/  5/  6   N/A
CHES BAY BRIDGE  1800   80 80  350/  3/  4 1016.5S
CAPE HENRY VA    1800   80     320/  5/  6 1015.8F
CHESAPEAKE LGHT  1700   80     310/  6/  6 1017.8R
WILLOUBY STN VA  1800   81     240/  3/  4 1015.9R
S CRANEY ISL VA  1800           50/  2/  3 1016.7R
CAPE HENRY BUOY  1800      80                N/A     2/ 6
1ST LANDING BUOY 1800   79     310/  4/  4 1016.6F
CAPE CHARLES BUO 1800      78                N/A     2/ 6   2/ 6
OFFSHORE WE BUOY 1800      79                N/A     2/ 7   2/ 7
64NM E OF VA BCH 1800   77 79  220/  8/ 12 1016.9F   2/ 8   2/ 8
DUCK PIER NC     1800   84 79  240/  4/  6 1016.3S
44056 DUCK FRF   1700                        N/A     2/ 7
OREGON INLET NC  1800   80 82  210/  7/ 10 1017.1F
HATTERAS NC      1800   85 81  170/  2/  5 1017.8R
DIAMOND SHLS NC  1800   81     190/  6/  8 1017.2F   3/ 8   2/ 8
CAPE LOOKOUT NC  1700   82     170/ 10/ 12 1017.4F
$$


USA.gov is the U.S. government's official web portal to all federal, state and local government web resources and services.